RYR2PY LMML-LIMC

Flight info

Callsign RYR2PY
Flight time N/A
Altitude 36000
Route GZO M622 SOPIR DCT MABOX DCT ADEXI DCT ELB DCT NORNI DCT UPDIN DCT SPEZI DCT IDONA DCT MEBUR
Aircraft B738/M-SDE2E3FGHIRWXY/LB1

Departure

Time 2026-04-28 18:54
Airport Malta International Airport (LMML)

Arrival

Time N/A
Airport Milan Malpensa International Airport (LIMC)
Time Latitude Longitude Altitude Speed Heading
2026-04-28 17:17 35.84857 14.49455 258 ft 0 kts 360°
2026-04-28 18:44 35.84828 14.49456 281 ft 1 kts 359°
2026-04-28 18:44 35.84808 14.49457 258 ft 2 kts 350°
2026-04-28 18:45 35.84783 14.49462 258 ft 4 kts 340°
2026-04-28 18:45 35.84766 14.49475 258 ft 4 kts 314°
2026-04-28 18:45 35.84757 14.49487 258 ft 0 kts 315°
2026-04-28 18:48 35.84758 14.49485 258 ft 3 kts 315°
2026-04-28 18:48 35.84796 14.49438 258 ft 11 kts 315°
2026-04-28 18:49 35.84858 14.49361 258 ft 14 kts 315°
2026-04-28 18:49 35.84882 14.49330 258 ft 16 kts 315°
2026-04-28 18:49 35.84903 14.49132 258 ft 16 kts 264°
2026-04-28 18:49 35.84956 14.49019 257 ft 15 kts 303°
2026-04-28 18:50 35.84993 14.48901 258 ft 15 kts 284°
2026-04-28 18:50 35.85017 14.48783 260 ft 14 kts 284°
2026-04-28 18:50 35.85045 14.48674 264 ft 13 kts 292°
2026-04-28 18:50 35.85090 14.48577 268 ft 13 kts 306°
2026-04-28 18:51 35.85149 14.48493 271 ft 15 kts 314°
2026-04-28 18:51 35.85241 14.48377 271 ft 23 kts 314°
2026-04-28 18:51 35.85372 14.48213 271 ft 30 kts 314°
2026-04-28 18:51 35.85543 14.48061 275 ft 29 kts 346°
2026-04-28 18:52 35.85666 14.48007 271 ft 9 kts 302°
2026-04-28 18:52 35.85656 14.47937 275 ft 9 kts 232°
2026-04-28 18:52 35.85603 14.47930 271 ft 8 kts 150°
2026-04-28 18:52 35.85575 14.47961 271 ft 0 kts 133°
2026-04-28 18:53 35.85562 14.47979 271 ft 11 kts 133°
2026-04-28 18:53 35.85346 14.48247 271 ft 78 kts 135°
2026-04-28 18:53 35.84815 14.48898 258 ft 136 kts 135°
2026-04-28 18:53 35.84059 14.49833 450 ft 163 kts 135°
2026-04-28 18:54 35.83174 14.50827 841 ft 184 kts 139°
2026-04-28 18:54 35.82033 14.51350 1642 ft 174 kts 185°
2026-04-28 18:54 35.80976 14.50723 2226 ft 179 kts 233°
2026-04-28 18:54 35.80351 14.49408 2847 ft 179 kts 239°
2026-04-28 18:55 35.79706 14.48081 3440 ft 182 kts 239°
2026-04-28 18:55 35.79251 14.47157 3661 ft 198 kts 239°
2026-04-28 18:55 35.78245 14.45122 4072 ft 214 kts 240°
2026-04-28 18:55 35.77454 14.43528 4442 ft 222 kts 240°
2026-04-28 18:56 35.76632 14.41874 4807 ft 231 kts 240°
2026-04-28 18:56 35.75876 14.40076 5120 ft 244 kts 253°
2026-04-28 18:56 35.75593 14.37999 5489 ft 255 kts 271°
2026-04-28 18:56 35.75923 14.35805 5859 ft 263 kts 292°
2026-04-28 18:57 35.76863 14.33983 6180 ft 257 kts 315°
2026-04-28 18:57 35.78363 14.32707 6653 ft 268 kts 334°
2026-04-28 18:57 35.80106 14.31829 7288 ft 273 kts 337°
2026-04-28 18:57 35.81886 14.30996 8006 ft 274 kts 337°
2026-04-28 18:58 35.83681 14.30160 8734 ft 277 kts 337°
2026-04-28 18:58 35.85489 14.29309 9454 ft 280 kts 336°
2026-04-28 18:58 35.87313 14.28442 10199 ft 282 kts 336°